P/2007 Q2 (Gilmore)

Epoch 2007 Aug. 8.0 TT = JDT 2454320.5  

T 2007 Aug. 23.87400 TT                                 Nakano

q   1.8390271            (2000.0)            P               Q

n   0.07449329     Peri.  163.14670     +0.90982774     +0.41429314

a   5.5940278      Node   172.24903     -0.39829392     +0.88799196

e   0.6712517      Incl.   10.23860     -0.11651368     +0.19957824

P  13.23 (+/- 0.11 day)

From 145 observations 2007 Aug. 22-Oct. 15, mean residual 0".51.

Residuals in seconds of arc 

2007/                     070831 213  0.1+  0.3+    070919 704  0.2+  0.5+  

070822 704  0.7+  0.4+    070831 213  0.1-  0.3+    070919 691  0.1-  0.1-  

070822 704  0.7+  1.0+    070903 J70  1.5+  0.5-    070919 704  0.7+  0.8+  

070822 704  1.1-  0.3+    070903 J70 (4.7+  0.6+)   070920 349  0.1-  0.5-  

070822 704  0.7-  0.7+    070903 J70 (4.4+  1.1+)   070920 349  0.0   0.6-  

070822 474  0.1-  0.1-    070905 213  0.2+  0.4-    070921 850  0.1+  0.4-  

070822 474  0.1+  0.1-    070905 213  0.2+  0.3-    070921 850  0.2-  0.5-  

070822 474  0.2+  0.1+    070905 213  0.2+  0.4-    070921 850  0.4+  0.1+  

070824 474  0.2+  0.3-    070907 704  0.2+  1.3+    070921 850  0.1+  0.2-  

070824 474  0.3+  0.1+    070907 704  0.3-  0.0     070930 691  0.4-  0.1+  

070824 474  0.3-  0.2+    070907 704  0.8+  0.9+    070930 691  0.4-  0.3-  

070824 B21  0.2+  0.4-    070907 704  0.3-  1.3+    070930 691  0.2-  0.4-  

070824 B21  0.5-  0.1-    070907 704  0.1-  0.6+    071001 585  1.8-  0.2-  

070825 247  0.1+  0.2+    070907 J51  0.2+  0.4+    071001 585  1.1+  0.0   

070825 A50  0.7-  0.3+    070908 J51  0.2+  0.5+    071001 585  1.2-  1.9-  

070825 A50  0.7-  0.1+    070908 J51  0.2+  0.4+    071004 673  0.4+  0.1+  

070825 247  0.2-  0.2+    070908 157  0.4-  0.1+    071004 673  0.0   0.3+  

070825 A50  0.6-  0.3+    070909 415  0.0   0.0     071004 673  0.2-  0.4+  

070825 247  0.2-  0.2+    070909 415  0.5-  0.4-    071004 673  0.4+  0.6+  

070825 J95  0.2+  0.4-    070910 B42  0.5+  0.0     071007 246  0.8+  0.9+  

070825 J95  0.0   0.5+    070911 691  0.0   0.1-    071007 246  0.6+  0.3+  

070825 J95  0.1-  0.2-    070911 691  0.0   0.1-    071007 246  1.1+  0.0   

070825 673  0.0   0.0     070911 691  0.1-  0.2-    071007 246  0.8+  0.2-  

070825 673  0.0   0.1+    070912 215  0.3+  0.1-    071007 246  1.6+  0.1+  

070825 673  0.0   0.0     070912 215  0.1+  0.2-    071007 246  1.4+  0.4+  

070825 673  0.1-  0.1-    070912 215  0.3+  0.4-    071009 585  1.0-  0.7+  

070825 151  0.2+  0.3+    070913 673  0.2+  0.3-    071009 585  1.0+  1.3-  

070825 151  0.4-  0.0     070913 673  0.2+  0.1-    071009 585  0.6+  0.1-  

070825 151  0.8-  0.4+    070913 673  0.0   0.0     071009 585 (0.3-  3.5-) 

070825 J95  0.5+  0.4-    070913 673  0.1-  0.2+    071011 691  0.4-  0.8-  

070825 147  0.0   0.6-    070915 691  0.3-  0.2+    071011 691  0.4-  0.4-  

070825 147  0.4+  1.0-    070915 691  0.4-  0.1+    071011 691  0.4-  0.2-  

070825 204  0.1+  0.1+    070915 691  0.5-  0.1-    071011 691  0.1-  0.2-  

070825 J95  0.3+  0.2-    070915 415  0.5+  0.0     071011 691  0.4-  0.3-  

070826 247  0.1+  0.6-    070915 415  0.2+  0.1+    071011 691  1.6+  0.1+  

070826 J95  0.3+  0.8-    070915 B42  0.1+  0.3+    071013 691  0.4-  0.9+  

070826 247  0.2+  0.1-    070915 473 (0.4-  6.6-)   071013 691  0.2-  0.3-  

070826 204  0.2+  0.0     070915 B42  0.2-  0.9+    071013 691  0.3-  0.3-  

070826 247  0.6+  0.9-    070915 J47  0.1+  0.1+    071013 415  0.1-  0.1-  

070826 204  0.2+  0.0     070915 J47  0.0   0.1+    071013 415  0.3+  0.3-  

070826 H55  0.2+  0.1+    070915 J47  0.0   0.2-    071015 703  0.8-  0.1+  

070826 H55  0.0   0.2+    070917 585 (2.6-  0.6+)   071015 703  1.8-  0.2+  

070826 H55  0.0   0.2+    070918 585  1.6-  1.0-    071015 703  0.1-  0.6+  

070827 D35  0.1-  0.8-    070918 585  0.9-  1.0+    071015 703  0.1+  0.7+  

070827 D35  0.0   0.4-    070918 585  0.9-  0.4-    071015 246  0.6+  0.4+  

070827 D35  0.0   0.7-    070918 585  0.8-  0.4+    071015 246  0.4-  0.5+  

070827 D35  0.0   0.3-    070918 130  0.3-  0.1-    071015 246  0.0   0.3+  

070830 413  0.1-  0.1-    070918 130  0.2+  0.4-    071015 246  0.3-  0.6-  

070830 413  0.2+  0.1+    070919 704  0.4+  0.6+    071015 246  0.2-  0.4-  

070830 413  0.5-  0.0     070919 691  0.1-  0.1-                            

070831 213  0.0   0.1+    070919 691  0.3+  0.2+                            



NAKANO

         **** Don't distribute anyone except personal use only ****

                (C) Copyright 2007 OAA/ComputingSection

write mail from CFAD0::NAKANO on 2007-11-30 09:05:11(JST).

 

    P/2007 Q2 (Gilmore)

T 2007 Aug. 23.88027 TT                                 Nakano

q   1.8390071            (2000.0)            P               Q

n   0.07450354     Peri.  163.14973     +0.90985041     +0.41424340

a   5.5935147      Node   172.24914     -0.39824507     +0.88801283

e   0.6712251      Incl.   10.23836     -0.11650363     +0.19958863

P  13.23 (+/- 0.11 day)

From 132 observations 2007 Aug. 22-Oct. 15.



NAKANO

         **** Don't distribute anyone except personal use only ****

                (C) Copyright 2007 OAA/ComputingSection

write mail from CFAD0::NAKANO on 2007-10-18 07:23:28(JST).

 



◎P/2007 Q2の軌道と予報位置



 上尾の門田健一氏から,9月20日の観測が報告されました.氏のCCD全光度

は18.9等でした.



    P/2007 Q2 (Gilmore)

T 2007 Aug. 23.90472 TT                                 Nakano

q   1.8403093            (2000.0)            P               Q

n   0.07407125     Peri.  163.17476     +0.90997184     +0.41397287

a   5.6152565      Node   172.24059     -0.39800072     +0.88819267

e   0.6722662      Incl.   10.25468     -0.11639021     +0.19934953

P  13.31 (+/- 1.47 days)

From 90 observations 2007 Aug. 22-Sept. 20.

 

Date/        TT  R.A.(2000) Decl.     Delta   r     Daily motion  Mag.  Moon Age

              h    h  m       。  ,                      ,  / PA 。  m1      。

2007 Sept.20 14  22 47.15  -06 34.2   0.878  1.863    11.5 / 164  18.4   64  .59

          21 14  22 47.36  -06 45.3   0.882  1.864    11.4 / 162  18.4   51  .69

          22 14  22 47.60  -06 56.2   0.886  1.866    11.3 / 161  18.4   38  .78

          23 14  22 47.85  -07 06.9   0.891  1.868    11.2 / 159  18.5   24  .86

          24 14  22 48.12  -07 17.3   0.896  1.869    11.0 / 157  18.5   10  .93

          25 14  22 48.41  -07 27.5   0.901  1.871    10.9 / 155  18.5    4  .98

          26 14  22 48.71  -07 37.4   0.907  1.873    10.8 / 154  18.5   19 1.00

          27 14  22 49.03  -07 47.1   0.912  1.875    10.7 / 152  18.5   34  .99

          28 14  22 49.38  -07 56.5   0.918  1.877    10.6 / 150  18.5   49  .95

          29 14  22 49.74  -08 05.7   0.924  1.879    10.5 / 147  18.6   64  .89

          30 14  22 50.12  -08 14.6   0.930  1.881    10.5 / 145  18.6   79  .80

     Oct.  1 14  22 50.52  -08 23.2   0.936  1.883    10.4 / 143  18.6   93  .70

           2 14  22 50.94  -08 31.5   0.943  1.886    10.4 / 141  18.6  107  .59

           3 14  22 51.38  -08 39.5   0.949  1.888    10.3 / 138  18.6  121  .48

           4 14  22 51.85  -08 47.2   0.956  1.890    10.3 / 136  18.7  134  .38

           5 14  22 52.33  -08 54.7   0.963  1.893    10.3 / 134  18.7  147  .28

           6 14  22 52.83  -09 01.8   0.971  1.895    10.3 / 131  18.7  160  .19

           7 14  22 53.36  -09 08.6   0.978  1.898    10.4 / 129  18.7  172  .12

           8 14  22 53.91  -09 15.1   0.986  1.900    10.4 / 126  18.8  175  .06

           9 14  22 54.47  -09 21.3   0.994  1.903    10.5 / 124  18.8  163  .02

          10 14  22 55.06  -09 27.2   1.002  1.905    10.6 / 122  18.8  151  .00

          11 14  22 55.67  -09 32.7   1.010  1.908    10.7 / 119  18.8  139  .00

          12 14  22 56.31  -09 38.0   1.018  1.911    10.9 / 117  18.9  127  .02

          13 14  22 56.96  -09 42.9   1.026  1.914    11.0 / 115  18.9  116  .05

          14 14  22 57.64  -09 47.5   1.035  1.916    11.2 / 113  18.9  104  .10

          15 14  22 58.33  -09 51.8   1.044  1.919    11.3 / 111  18.9   92  .16

          16 14  22 59.05  -09 55.7   1.053  1.922    11.5 / 109  18.9   81  .24

          17 14  22 59.79  -09 59.4   1.062  1.925    11.7 / 107  19.0   69  .33

          18 14  23 00.55  -10 02.7   1.071  1.928    11.9 / 105  19.0   57  .42

          19 14  23 01.33  -10 05.8   1.081  1.931    12.1 / 103  19.0   44  .52

          20 14  23 02.14  -10 08.5   1.090  1.934    12.4 / 101  19.1   31  .63

          21 14  23 02.96  -10 10.9   1.100  1.938    12.6 / 100  19.1   18  .73

          22 14  23 03.80  -10 13.0   1.110  1.941    12.8 /  98  19.1    6  .82

          23 14  23 04.66  -10 14.8   1.120  1.944    13.1 /  97  19.1   11  .90

          24 14  23 05.54  -10 16.3   1.130  1.947    13.3 /  95  19.2   25  .96

          25 14  23 06.44  -10 17.6   1.141  1.951    13.6 /  94  19.2   40  .99

          26 14  23 07.36  -10 18.5   1.151  1.954    13.8 /  93  19.2   55 1.00

          27 14  23 08.29  -10 19.1   1.162  1.957    14.1 /  92  19.2   70  .97

          28 14  23 09.25  -10 19.5   1.173  1.961    14.3 /  90  19.3   85  .91

          29 14  23 10.22  -10 19.6   1.184  1.964    14.6 /  89  19.3   99  .84

          30 14  23 11.21  -10 19.4   1.195  1.968    14.9 /  88  19.3  113  .74

          31 14  23 12.21  -10 19.0   1.206  1.972    15.1 /  87  19.4  127  .64

     Nov.  1 14  23 13.24  -10 18.3   1.217  1.975    15.4 /  86  19.4  140  .53

NAKANO

         **** Don't distribute anyone except personal use only ****

                (C) Copyright 2007 OAA/ComputingSection

write mail from CFAD0::NAKANO on 2007-09-23 03:08:38(JST).

 

    P/2007 Q2 (Gilmore)

T 2007 Aug. 23.84251 TT                                 Nakano

q   1.8405128            (2000.0)            P               Q

n   0.07397800     Peri.  163.14417     +0.90974712     +0.41446611

a   5.6199741      Node   172.24005     -0.39848506     +0.88798458

e   0.6725051      Incl.   10.25678     -0.11648965     +0.19925168

P  13.32 (+/- 3.84 days)

From 68 observations 2007 Aug. 22-Sept. 10.



NAKANO

         **** Don't distribute anyone except personal use only ****

                (C) Copyright 2007 OAA/ComputingSection

write mail from CFAD0::NAKANO on 2007-09-16 02:42:41(JST).



戻ります。